When you browse on this site, cookies collect data to enhance your experience and personalize the content and advertising you see.
Visit our Privacy Policy to learn more. By continuing to use the site, you agree to this use of cookies and data.
  • In United Kingdom
  • List of Countries
  • For 7 days
  • Water Temperature
  • Weather Map
  • Weather Widgets
  • user-avatar
    Login

    Hourly Weather Ahtopol

    Today, 17 September, Tuesday

    Time Temperature Precipitation Wind Pressure Humidity
    00:00 +19°C° 0 mm 1 mps 759 mmHg 60%
    01:00 +18°C° 0 mm 1 mps 759 mmHg 60%
    02:00 +17°C° 0 mm 2 mps 758 mmHg 60%
    03:00 +17°C° 0 mm 2 mps 758 mmHg 59%
    04:00 +17°C° 0 mm 2 mps 758 mmHg 59%
    05:00 +17°C° 0 mm 2 mps 758 mmHg 58%
    06:00 +19°C° 0 mm 3 mps 758 mmHg 51%
    07:00 +22°C° 0 mm 3 mps 758 mmHg 44%
    08:00 +25°C° 0 mm 3 mps 758 mmHg 38%
    09:00 +28°C° 0 mm 3 mps 758 mmHg 32%
    10:00 +30°C° 0 mm 3 mps 758 mmHg 27%
    11:00 +33°C° 0 mm 3 mps 758 mmHg 22%
    12:00 +34°C° 0 mm 3 mps 758 mmHg 20%
    13:00 +35°C° 0 mm 4 mps 757 mmHg 18%
    14:00 +36°C° 0 mm 4 mps 757 mmHg 16%
    15:00 +36°C° 0 mm 4 mps 756 mmHg 18%
    16:00 +35°C° 0 mm 4 mps 756 mmHg 19%
    17:00 +34°C° 0 mm 3 mps 756 mmHg 21%
    18:00 +31°C° 0 mm 3 mps 756 mmHg 26%
    19:00 +28°C° 0 mm 2 mps 757 mmHg 30%
    20:00 +25°C° 0 mm 2 mps 757 mmHg 35%
    21:00 +25°C° 0 mm 2 mps 757 mmHg 37%
    22:00 +24°C° 0 mm 2 mps 757 mmHg 38%
    23:00 +24°C° 0 mm 2 mps 757 mmHg 40%

    Tomorrow, 18 September, Wednesday

    Time Temperature Precipitation Wind Pressure Humidity
    00:00 +24°C° 0 mm 2 mps 757 mmHg 40%
    01:00 +23°C° 0 mm 2 mps 757 mmHg 41%
    02:00 +23°C° 0 mm 2 mps 757 mmHg 42%
    03:00 +21°C° 0 mm 2 mps 757 mmHg 44%
    04:00 +21°C° 0 mm 2 mps 756 mmHg 46%
    05:00 +20°C° 0 mm 2 mps 756 mmHg 49%
    06:00 +22°C° 0 mm 3 mps 756 mmHg 45%
    07:00 +25°C° 0 mm 3 mps 756 mmHg 42%
    08:00 +27°C° 0 mm 3 mps 756 mmHg 39%
    09:00 +29°C° 0 mm 4 mps 756 mmHg 33%
    10:00 +33°C° 0 mm 4 mps 756 mmHg 27%
    11:00 +36°C° 0 mm 4 mps 756 mmHg 21%
    12:00 +36°C° 0 mm 4 mps 756 mmHg 19%
    13:00 +37°C° 0 mm 5 mps 756 mmHg 18%
    14:00 +39°C° 0 mm 5 mps 756 mmHg 16%
    15:00 +34°C° 0 mm 6 mps 757 mmHg 29%
    16:00 +29°C° 0 mm 7 mps 757 mmHg 42%
    17:00 +24°C° 0 mm 9 mps 758 mmHg 55%
    18:00 +23°C° 0 mm 8 mps 759 mmHg 62%
    19:00 +21°C° 0 mm 7 mps 760 mmHg 69%
    20:00 +20°C° 0 mm 6 mps 761 mmHg 76%
    21:00 +19°C° 0 mm 5 mps 761 mmHg 75%
    22:00 +19°C° 0 mm 4 mps 762 mmHg 75%
    23:00 +18°C° 0 mm 4 mps 762 mmHg 75%

    Day after tomorrow, 19 September, Thursday

    Time Temperature Precipitation Wind Pressure Humidity
    00:00 +18°C° 0 mm 3 mps 762 mmHg 73%
    01:00 +18°C° 0 mm 3 mps 763 mmHg 71%
    02:00 +17°C° 0 mm 3 mps 763 mmHg 69%
    03:00 +18°C° 0 mm 3 mps 763 mmHg 66%
    04:00 +18°C° 0 mm 3 mps 763 mmHg 63%
    05:00 +18°C° 0 mm 3 mps 763 mmHg 61%
    06:00 +19°C° 0 mm 3 mps 763 mmHg 59%
    07:00 +20°C° 0 mm 4 mps 763 mmHg 57%
    08:00 +20°C° 0 mm 4 mps 763 mmHg 55%
    09:00 +21°C° 0 mm 5 mps 763 mmHg 53%
    10:00 +22°C° 0 mm 5 mps 763 mmHg 50%
    11:00 +23°C° 0 mm 5 mps 763 mmHg 48%
    12:00 +23°C° 0 mm 6 mps 763 mmHg 50%
    13:00 +23°C° 0 mm 6 mps 763 mmHg 51%
    14:00 +23°C° 0 mm 6 mps 762 mmHg 53%
    15:00 +22°C° 0 mm 6 mps 762 mmHg 56%
    16:00 +22°C° 0 mm 5 mps 762 mmHg 60%
    17:00 +21°C° 0 mm 5 mps 762 mmHg 63%
    18:00 +20°C° 0 mm 5 mps 762 mmHg 67%
    19:00 +19°C° 0 mm 4 mps 763 mmHg 71%
    20:00 +18°C° 0 mm 4 mps 763 mmHg 75%
    21:00 +17°C° 0 mm 3 mps 763 mmHg 75%
    22:00 +17°C° 0 mm 3 mps 763 mmHg 76%
    23:00 +16°C° 0 mm 3 mps 763 mmHg 77%

    20 September, Friday

    Time Temperature Precipitation Wind Pressure Humidity
    00:00 +15°C° 0.2 mm 4 mps 763 mmHg 80%
    01:00 +14°C° 0.2 mm 4 mps 763 mmHg 83%
    02:00 +13°C° 0.2 mm 5 mps 763 mmHg 85%
    03:00 +13°C° 0.5 mm 4 mps 763 mmHg 85%
    04:00 +13°C° 0.5 mm 4 mps 763 mmHg 85%
    05:00 +13°C° 0.5 mm 3 mps 763 mmHg 85%
    06:00 +13°C° 0.2 mm 4 mps 763 mmHg 81%
    07:00 +13°C° 0.2 mm 4 mps 763 mmHg 77%
    08:00 +13°C° 0.2 mm 4 mps 763 mmHg 73%
    09:00 +15°C° 0 mm 4 mps 764 mmHg 62%
    10:00 +17°C° 0 mm 5 mps 764 mmHg 51%
    11:00 +20°C° 0 mm 5 mps 764 mmHg 40%
    12:00 +21°C° 0 mm 5 mps 763 mmHg 35%
    13:00 +23°C° 0 mm 5 mps 763 mmHg 30%
    14:00 +25°C° 0 mm 5 mps 763 mmHg 25%
    15:00 +23°C° 0 mm 4 mps 763 mmHg 26%
    16:00 +22°C° 0 mm 4 mps 763 mmHg 27%
    17:00 +22°C° 0 mm 4 mps 763 mmHg 29%
    18:00 +20°C° 0 mm 4 mps 763 mmHg 36%
    19:00 +18°C° 0 mm 3 mps 764 mmHg 44%
    20:00 +14°C° 0 mm 3 mps 764 mmHg 51%
    21:00 +14°C° 0 mm 3 mps 765 mmHg 51%
    22:00 +14°C° 0 mm 2 mps 765 mmHg 51%
    23:00 +14°C° 0 mm 2 mps 765 mmHg 51%

    21 September, Saturday

    Time Temperature Precipitation Wind Pressure Humidity
    00:00 +13°C° 0 mm 2 mps 765 mmHg 51%
    01:00 +13°C° 0 mm 2 mps 766 mmHg 52%
    02:00 +12°C° 0 mm 2 mps 766 mmHg 53%
    03:00 +12°C° 0 mm 2 mps 766 mmHg 53%
    04:00 +10°C° 0 mm 3 mps 766 mmHg 53%
    05:00 +10°C° 0 mm 3 mps 766 mmHg 53%
    06:00 +12°C° 0 mm 3 mps 767 mmHg 48%
    07:00 +13°C° 0 mm 4 mps 767 mmHg 43%
    08:00 +15°C° 0 mm 5 mps 767 mmHg 38%
    09:00 +16°C° 0 mm 5 mps 767 mmHg 36%
    10:00 +19°C° 0 mm 5 mps 768 mmHg 33%
    11:00 +20°C° 0 mm 5 mps 768 mmHg 30%
    12:00 +21°C° 0 mm 5 mps 768 mmHg 29%
    13:00 +21°C° 0 mm 5 mps 767 mmHg 27%
    14:00 +22°C° 0 mm 5 mps 767 mmHg 26%
    15:00 +21°C° 0 mm 5 mps 767 mmHg 28%
    16:00 +20°C° 0 mm 5 mps 767 mmHg 30%
    17:00 +19°C° 0 mm 5 mps 767 mmHg 33%
    18:00 +17°C° 0 mm 4 mps 768 mmHg 41%
    19:00 +14°C° 0 mm 4 mps 768 mmHg 49%
    20:00 +12°C° 0 mm 3 mps 769 mmHg 58%
    21:00 +12°C° 0 mm 3 mps 769 mmHg 58%
    22:00 +12°C° 0 mm 3 mps 769 mmHg 58%
    23:00 +11°C° 0 mm 3 mps 769 mmHg 58%

    22 September, Sunday

    Time Temperature Precipitation Wind Pressure Humidity
    00:00 +12°C° 0 mm 2 mps 769 mmHg 58%
    01:00 +12°C° 0 mm 2 mps 769 mmHg 58%
    02:00 +12°C° 0 mm 2 mps 769 mmHg 57%
    03:00 +10°C° 0 mm 2 mps 769 mmHg 58%
    04:00 +10°C° 0 mm 2 mps 769 mmHg 59%
    05:00 +10°C° 0 mm 2 mps 769 mmHg 59%
    06:00 +12°C° 0 mm 2 mps 769 mmHg 53%
    07:00 +14°C° 0 mm 2 mps 769 mmHg 46%
    08:00 +16°C° 0 mm 2 mps 770 mmHg 40%
    09:00 +18°C° 0 mm 3 mps 770 mmHg 37%
    10:00 +19°C° 0 mm 4 mps 770 mmHg 34%
    11:00 +21°C° 0 mm 5 mps 770 mmHg 31%
    12:00 +22°C° 0 mm 5 mps 769 mmHg 30%
    13:00 +22°C° 0 mm 5 mps 769 mmHg 30%
    14:00 +22°C° 0 mm 5 mps 768 mmHg 30%
    15:00 +21°C° 0 mm 5 mps 768 mmHg 33%
    16:00 +21°C° 0 mm 5 mps 768 mmHg 35%
    17:00 +20°C° 0 mm 5 mps 767 mmHg 38%
    18:00 +18°C° 0 mm 4 mps 768 mmHg 46%
    19:00 +16°C° 0 mm 3 mps 768 mmHg 54%
    20:00 +13°C° 0 mm 3 mps 768 mmHg 62%
    21:00 +14°C° 0 mm 2 mps 768 mmHg 63%
    22:00 +13°C° 0 mm 2 mps 768 mmHg 65%
    23:00 +13°C° 0 mm 2 mps 768 mmHg 66%
    Show more